Meteo pe oră la Czysta

Astăzi, 11 Aprilie, Duminică

Timp Temperatura Precipitaţii Vânt Presiune Umiditate
00:00 +3°C° 0 mm 2 m/s 762 mmHg 75%
01:00 +2°C° 0 mm 3 m/s 762 mmHg 76%
02:00 +2°C° 0 mm 3 m/s 762 mmHg 77%
03:00 +1°C° 0 mm 4 m/s 762 mmHg 77%
04:00 +1°C° 0 mm 5 m/s 761 mmHg 78%
05:00 +2°C° 0.1 mm 5 m/s 761 mmHg 83%
06:00 +2°C° 0.1 mm 5 m/s 761 mmHg 87%
07:00 +2°C° 0 mm 6 m/s 761 mmHg 90%
08:00 +4°C° 0.7 mm 6 m/s 760 mmHg 87%
09:00 +5°C° 0.7 mm 6 m/s 759 mmHg 84%
10:00 +8°C° 0.7 mm 7 m/s 759 mmHg 81%
11:00 +10°C° 0 mm 7 m/s 758 mmHg 71%
12:00 +14°C° 0 mm 6 m/s 758 mmHg 60%
13:00 +17°C° 0 mm 6 m/s 757 mmHg 50%
14:00 +17°C° 0 mm 6 m/s 757 mmHg 51%
15:00 +17°C° 0 mm 6 m/s 757 mmHg 52%
16:00 +17°C° 0 mm 6 m/s 757 mmHg 53%
17:00 +16°C° 0 mm 5 m/s 757 mmHg 57%
18:00 +14°C° 0 mm 5 m/s 757 mmHg 62%
19:00 +13°C° 0 mm 5 m/s 757 mmHg 67%
20:00 +12°C° 0 mm 5 m/s 757 mmHg 70%
21:00 +10°C° 0 mm 5 m/s 757 mmHg 74%
22:00 +10°C° 0 mm 5 m/s 757 mmHg 77%
23:00 +9°C° 0 mm 5 m/s 757 mmHg 79%

Mâine, 12 Aprilie, Luni

Timp Temperatura Precipitaţii Vânt Presiune Umiditate
00:00 +9°C° 0 mm 5 m/s 757 mmHg 80%
01:00 +9°C° 0 mm 5 m/s 757 mmHg 81%
02:00 +8°C° 0 mm 6 m/s 758 mmHg 83%
03:00 +7°C° 0 mm 6 m/s 758 mmHg 86%
04:00 +5°C° 0 mm 6 m/s 759 mmHg 88%
05:00 +4°C° 0.1 mm 6 m/s 759 mmHg 88%
06:00 +3°C° 0.1 mm 6 m/s 760 mmHg 88%
07:00 +3°C° 0.1 mm 6 m/s 761 mmHg 88%
08:00 +3°C° 0.1 mm 6 m/s 761 mmHg 85%
09:00 +3°C° 0.1 mm 6 m/s 762 mmHg 81%
10:00 +3°C° 0.1 mm 6 m/s 762 mmHg 77%
11:00 +3°C° 0 mm 6 m/s 763 mmHg 74%
12:00 +3°C° 0 mm 7 m/s 763 mmHg 72%
13:00 +3°C° 0 mm 7 m/s 764 mmHg 69%
14:00 +3°C° 0.1 mm 6 m/s 764 mmHg 69%
15:00 +3°C° 0.1 mm 6 m/s 764 mmHg 69%
16:00 +3°C° 0.1 mm 6 m/s 764 mmHg 69%
17:00 +3°C° 0 mm 5 m/s 765 mmHg 71%
18:00 +3°C° 0 mm 5 m/s 765 mmHg 72%
19:00 +2°C° 0 mm 5 m/s 765 mmHg 74%
20:00 +2°C° 0 mm 5 m/s 765 mmHg 76%
21:00 +2°C° 0 mm 5 m/s 766 mmHg 78%
22:00 +2°C° 0 mm 5 m/s 766 mmHg 80%
23:00 +1°C° 0 mm 5 m/s 766 mmHg 81%

Poimâine, 13 Aprilie, Marţi

Timp Temperatura Precipitaţii Vânt Presiune Umiditate
00:00 +1°C° 0 mm 4 m/s 766 mmHg 82%
01:00 0°C° 0 mm 4 m/s 766 mmHg 84%
02:00 0°C° 0 mm 4 m/s 766 mmHg 84%
03:00 0°C° 0 mm 4 m/s 766 mmHg 84%
04:00 0°C° 0 mm 4 m/s 767 mmHg 84%
05:00 0°C° 0 mm 5 m/s 767 mmHg 80%
06:00 +1°C° 0 mm 5 m/s 767 mmHg 77%
07:00 +2°C° 0 mm 5 m/s 767 mmHg 74%
08:00 +3°C° 0 mm 6 m/s 767 mmHg 67%
09:00 +4°C° 0 mm 6 m/s 767 mmHg 60%
10:00 +5°C° 0 mm 6 m/s 768 mmHg 54%
11:00 +5°C° 0 mm 6 m/s 768 mmHg 54%
12:00 +5°C° 0 mm 7 m/s 768 mmHg 54%
13:00 +6°C° 0 mm 7 m/s 768 mmHg 53%
14:00 +5°C° 0 mm 6 m/s 768 mmHg 55%
15:00 +5°C° 0 mm 6 m/s 768 mmHg 56%
16:00 +5°C° 0 mm 6 m/s 768 mmHg 58%
17:00 +5°C° 0 mm 5 m/s 768 mmHg 64%
18:00 +4°C° 0 mm 4 m/s 768 mmHg 71%
19:00 +3°C° 0 mm 4 m/s 768 mmHg 77%
20:00 +3°C° 0 mm 3 m/s 768 mmHg 79%
21:00 +2°C° 0 mm 3 m/s 768 mmHg 81%
22:00 +2°C° 0 mm 3 m/s 768 mmHg 83%
23:00 +2°C° 0 mm 3 m/s 768 mmHg 84%

14 Aprilie, Miercuri

Timp Temperatura Precipitaţii Vânt Presiune Umiditate
00:00 +2°C° 0 mm 3 m/s 767 mmHg 85%
01:00 +2°C° 0 mm 3 m/s 767 mmHg 86%
02:00 +2°C° 0 mm 3 m/s 767 mmHg 86%
03:00 +3°C° 0 mm 2 m/s 767 mmHg 85%
04:00 +3°C° 0 mm 2 m/s 767 mmHg 85%
05:00 +3°C° 0 mm 2 m/s 767 mmHg 82%
06:00 +3°C° 0 mm 3 m/s 768 mmHg 79%
07:00 +4°C° 0 mm 3 m/s 768 mmHg 77%
08:00 +5°C° 0 mm 4 m/s 768 mmHg 72%
09:00 +5°C° 0 mm 5 m/s 768 mmHg 68%
10:00 +5°C° 0 mm 6 m/s 768 mmHg 64%
11:00 +5°C° 0 mm 6 m/s 769 mmHg 61%
12:00 +5°C° 0 mm 6 m/s 769 mmHg 59%
13:00 +5°C° 0 mm 6 m/s 769 mmHg 56%
14:00 +4°C° 0 mm 6 m/s 769 mmHg 57%
15:00 +4°C° 0 mm 6 m/s 769 mmHg 59%
16:00 +3°C° 0 mm 7 m/s 769 mmHg 61%
17:00 +3°C° 0 mm 6 m/s 769 mmHg 65%
18:00 +2°C° 0 mm 6 m/s 769 mmHg 69%
19:00 +1°C° 0 mm 6 m/s 769 mmHg 73%
20:00 +1°C° 0 mm 6 m/s 769 mmHg 72%
21:00 +1°C° 0 mm 6 m/s 769 mmHg 71%
22:00 -1°C° 0 mm 6 m/s 769 mmHg 71%
23:00 -1°C° 0 mm 6 m/s 769 mmHg 71%

15 Aprilie, Joi

Timp Temperatura Precipitaţii Vânt Presiune Umiditate
00:00 -1°C° 0 mm 7 m/s 769 mmHg 72%
01:00 -1°C° 0 mm 7 m/s 769 mmHg 72%
02:00 -1°C° 0 mm 7 m/s 769 mmHg 73%
03:00 -1°C° 0 mm 7 m/s 769 mmHg 74%
04:00 -1°C° 0 mm 7 m/s 769 mmHg 74%
05:00 0°C° 0 mm 7 m/s 769 mmHg 73%
06:00 0°C° 0 mm 7 m/s 769 mmHg 72%
07:00 +1°C° 0 mm 8 m/s 769 mmHg 70%
08:00 +2°C° 0 mm 8 m/s 769 mmHg 66%
09:00 +2°C° 0 mm 8 m/s 769 mmHg 62%
10:00 +4°C° 0 mm 8 m/s 770 mmHg 58%
11:00 +5°C° 0 mm 9 m/s 770 mmHg 56%
12:00 +5°C° 0 mm 9 m/s 770 mmHg 55%
13:00 +5°C° 0 mm 9 m/s 770 mmHg 53%
14:00 +5°C° 0 mm 9 m/s 770 mmHg 56%
15:00 +5°C° 0 mm 9 m/s 770 mmHg 58%
16:00 +3°C° 0 mm 9 m/s 770 mmHg 60%
17:00 +3°C° 0 mm 9 m/s 770 mmHg 67%
18:00 +2°C° 0 mm 8 m/s 770 mmHg 74%
19:00 +1°C° 0 mm 8 m/s 770 mmHg 80%
20:00 +1°C° 0 mm 8 m/s 770 mmHg 83%
21:00 0°C° 0 mm 7 m/s 770 mmHg 85%
22:00 0°C° 0 mm 7 m/s 770 mmHg 87%
23:00 0°C° 0 mm 7 m/s 770 mmHg 89%

16 Aprilie, Vineri

Timp Temperatura Precipitaţii Vânt Presiune Umiditate
00:00 0°C° 0 mm 7 m/s 770 mmHg 90%
01:00 +1°C° 0 mm 6 m/s 770 mmHg 92%
02:00 -1°C° 0 mm 6 m/s 770 mmHg 92%
03:00 -1°C° 0 mm 6 m/s 770 mmHg 92%
04:00 -1°C° 0 mm 6 m/s 770 mmHg 92%
05:00 0°C° 0 mm 7 m/s 770 mmHg 87%
06:00 +2°C° 0 mm 7 m/s 770 mmHg 83%
07:00 +3°C° 0 mm 7 m/s 770 mmHg 78%
08:00 +3°C° 0 mm 7 m/s 770 mmHg 72%
09:00 +4°C° 0 mm 7 m/s 770 mmHg 67%
10:00 +5°C° 0 mm 8 m/s 770 mmHg 61%
11:00 +6°C° 0 mm 8 m/s 770 mmHg 61%
12:00 +6°C° 0 mm 8 m/s 771 mmHg 61%
13:00 +6°C° 0 mm 8 m/s 771 mmHg 61%
14:00 +6°C° 0 mm 7 m/s 771 mmHg 62%
15:00 +5°C° 0 mm 7 m/s 771 mmHg 63%
16:00 +5°C° 0 mm 7 m/s 771 mmHg 64%
17:00 +5°C° 0 mm 6 m/s 771 mmHg 68%
18:00 +4°C° 0 mm 6 m/s 771 mmHg 72%
19:00 +5°C° 0 mm 5 m/s 771 mmHg 76%
20:00 +5°C° 0 mm 5 m/s 771 mmHg 77%
21:00 +5°C° 0 mm 4 m/s 772 mmHg 78%
22:00 +5°C° 0 mm 4 m/s 772 mmHg 79%
23:00 +5°C° 0 mm 4 m/s 772 mmHg 80%
Arată mai mult

Formular de consimțământ

Meteoprog și furnizorii noștri de servicii pot stoca și accesa date personale, precum cookies, identificatori de dispozitiv sau alte tehnologii similare pe dispozitivul dumneavoastră și procesa astfel de date pentru a personaliza conținutul și reclamele, dar și pentru a oferi caracteristici de social media și pentru a analiza traficul.

  • Stocarea și/sau accesarea informațiilor pe dispozitivul dumneavoastră

    Cookies, identificatori de dispozitiv sau alte informații pot fi stocate sau accesate pe dispozitiv în scopurile indicate mai sus.

  • Reclame și conținut personalizat, evaluarea reclamelor și a conținutului, informații despre audiențe și dezvoltarea produselor

    Reclamele și conținutul pot fi personalizate pe baza unui profil. Pot fi adăugate date suplimentare pentru a personaliza mai bine reclamele și conținutul. Performanța reclamelor și conținutului poate fi măsurată. Pot fi obținute informații despre utilizatorii care au văzut reclamele și conținutul. Aceste date pot fi utilizate pentru a dezvolta sau îmbunătăți experiența utilizatorilor, sistemele și software-ul.

Dând clic pe ‘Sunt de acord’, permiteți utilizarea cookie-urilor menționate, a identificatorilor de dispozitiv, balizelor web sau altor tehnologii similare. Setările pot fi modificate din browser-ul dispozitivului dumneavoastră.

În anumite scopuri, interesele legitime pot prima asupra consimțământului. Puteți citi mai multe informații în acest sens în Politica privind Confidențialitatea Datelor și Cookie.